Flag for U.S.A. Weather past 2 weeks in Green Bay, Wisconsin, U.S.A.

Now
35 °F

Clear.


Feels Like: 35 °F
Forecast: 34 / 53 °F
Wind: No wind

Location: Austin Straubel International Airport

Current Time: Oct 21, 2014 at 10:57:24 PM

Latest Report: Oct 21, 2014 at 9:53 PM


Visibility: 10 mi

Pressure: 30.31 "Hg

Humidity: 92%

Dew point: 33 °F

Location of Green BayLocation

Historic Weather in Green Bay — Graph

°F

Green Bay temperature yesterday

Maximum temperature yesterday: 54 °F (at 1:53 PM)
Minimum temperature yesterday: 40 °F (at 4:53 AM)
Average temperature yesterday: 48 °F

Past Weeks' High & Low Weather Summary

 TemperatureHumidityPressure
High62 °F (Oct 7, 1:53 PM)100% (Oct 13, 7:53 PM)30.31 "Hg (Oct 13, 7:53 PM)
Low31 °F (Oct 10, 6:53 AM)33% (Oct 10, 2:53 PM)29.47 "Hg (Oct 17, 4:53 AM)
Average48 °F77%29.92 "Hg
* Reported Oct 6 9:53 PM — Oct 21 9:53 PM, Green Bay, Weather by CustomWeather, © 2014

Note: Actual official high and low records may vary slightly from our data, if they occured in-between our weather recording intervals... More about our weather records

Advertising

Green Bay weather history for previous 24 hours

 ConditionsComfort  
Time TempWeatherWind HumidityBarometerVisibility
9:53 PM
Oct 21
35 °FClear.No wind92%30.31 "Hg10 mi
8:53 PM37 °FClear.No wind93%30.30 "Hg10 mi
7:53 PM39 °FClear.No wind86%30.28 "Hg10 mi
6:53 PM42 °FSunny.3 mph79%30.27 "Hg10 mi
5:53 PM45 °FSunny.6 mph71%30.26 "Hg10 mi
4:53 PM50 °FSunny.6 mph59%30.25 "Hg10 mi
3:53 PM51 °FSunny.6 mph56%30.24 "Hg10 mi
2:53 PM51 °FSunny.9 mph56%30.25 "Hg10 mi
1:53 PM50 °FSunny.10 mph59%30.24 "Hg10 mi
12:53 PM49 °FSunny.12 mph59%30.25 "Hg10 mi
12:04 PM48 °FScattered clouds.6 mph61%30.25 "Hg10 mi
11:53 AM48 °FPartly sunny.13 mph61%30.26 "Hg10 mi
10:53 AM46 °FOvercast.14 mph68%30.25 "Hg10 mi
9:53 AM45 °FOvercast.13 mph74%30.24 "Hg10 mi
8:53 AM44 °FOvercast.12 mph79%30.22 "Hg10 mi
7:53 AM43 °FOvercast.12 mph79%30.20 "Hg10 mi
6:53 AM43 °FOvercast.10 mph79%30.18 "Hg10 mi
5:53 AM43 °FMostly cloudy.10 mph79%30.15 "Hg10 mi
4:53 AM44 °FOvercast.13 mph79%30.12 "Hg10 mi
3:53 AM44 °FOvercast.13 mph79%30.10 "Hg10 mi
2:53 AM44 °FOvercast.7 mph79%30.09 "Hg10 mi
1:53 AM45 °FOvercast.9 mph76%30.07 "Hg10 mi
12:53 AM45 °FOvercast.12 mph80%30.06 "Hg10 mi
11:53 PM
Oct 20
46 °FOvercast.8 mph77%30.05 "Hg10 mi
10:53 PM47 °FOvercast.9 mph77%30.05 "Hg10 mi
Weather by CustomWeather, © 2014

See weather overviewHow to use our weather pages